Weather History for Isachsen, NU

Change the Weather History Date:

Friday, July 19, 2013

  Actual Average Record
Temperature  
Mean Temperature 37 °F -  
Max Temperature 42 °F - - ()
Min Temperature 32 °F - - ()
Degree Days  
Heating Degree Days 28    
Moisture  
Dew Point 36 °F    
Average Humidity 93    
Maximum Humidity 99    
Minimum Humidity 84    
Precipitation  
Precipitation 0.00 in - - ()
Sea Level Pressure  
Sea Level Pressure 30.01 in    
Wind  
Wind Speed 9 mph ()    
Max Wind Speed 15 mph    
Max Gust Speed -    
T = Trace of Precipitation, MM = Missing Value Source: Averaged Metar Reports

Daily Weather History Graph

Daily Weather History Graph

Search for Another Location

Airport:

Trip Planner

Search our weather history database for the weather conditions in past years. The results will help you decide how hot, cold, wet, or windy it might be!

Date:

Astronomy

Dec. 31, 1969 Rise Set
Actual Time Sun does not rise Sun does not rise
Civil Twilight Sun does not rise Sun does not rise
Nautical Twilight Sun does not rise Sun does not rise
Astronomical Twilight Sun does not rise Sun does not rise
Moon No Moon Rise No Moon Set
Length of Visible Light 24h 00m
Length of Day
24h 00m
Waxing Gibbous, 87% of the Moon is Illuminated
Jul 19
Waxing Gibbous
Jul 22
Full
Jul 29
Last Quarter
Aug 6
New
Aug 14
First Quarter

Hourly Weather History & Observations

Time (MDT) Temp. Windchill Dew Point Humidity Pressure Visibility Wind Dir Wind Speed Gust Speed Precip Events Conditions
12:00 AM 34 °F - 33 °F 95% 30.01 in - NW 11.5 mph - -  
12:00 AM 33.6 °F 25.6 °F 33.1 °F 98% 30.01 in - NW 10.4 mph - N/A   Unknown
1:00 AM 34.7 °F - 33.6 °F 96% 30.01 in - SW 2.3 mph - N/A   Unknown
2:00 AM 34.3 °F 27.0 °F 33.6 °F 97% 30.02 in - NW 9.2 mph - N/A   Unknown
3:00 AM 33.8 °F 23.9 °F 33.3 °F 98% 30.01 in - NW 15.0 mph - N/A   Unknown
5:00 AM 33.8 °F 25.3 °F 33.4 °F 99% 30.01 in - NW 11.5 mph - N/A   Unknown
6:00 AM 34 °F - 34 °F 98% 30.01 in - NNW 11.5 mph - -  
6:00 AM 34.0 °F 25.0 °F 33.8 °F 99% 30.01 in - NNW 12.7 mph - N/A   Unknown
7:00 AM 35.2 °F 27.1 °F 34.2 °F 96% 30.01 in - NNW 11.5 mph - N/A   Unknown
8:00 AM 36.1 °F 28.2 °F 34.7 °F 94% 30.01 in - NW 11.5 mph - N/A   Unknown
9:00 AM 36.3 °F 28.4 °F 34.5 °F 93% 30.00 in - North 11.5 mph - N/A   Unknown
10:00 AM 36.7 °F 29.9 °F 35.1 °F 94% 30.00 in - North 9.2 mph - N/A   Unknown
11:00 AM 37.8 °F 30.2 °F 35.8 °F 93% 30.01 in - North 11.5 mph - N/A   Unknown
12:00 PM 39 °F - 36 °F 86% 30.01 in - NNW 9.2 mph - -  
12:00 PM 38.8 °F 32.6 °F 36.3 °F 91% 30.01 in - NNW 9.2 mph - N/A   Unknown
1:00 PM 41.2 °F 35.5 °F 36.7 °F 84% 30.01 in - North 9.2 mph - N/A   Unknown
2:00 PM 41.2 °F 35.0 °F 37.0 °F 85% 30.01 in - North 10.4 mph - N/A   Unknown
3:00 PM 42.1 °F 37.1 °F 37.9 °F 85% 30.01 in - North 8.1 mph - N/A   Unknown
4:00 PM 42.6 °F 38.4 °F 38.8 °F 86% 30.01 in - NNW 6.9 mph - N/A   Unknown
5:00 PM 41.2 °F 35.0 °F 37.4 °F 86% 30.01 in - WNW 10.4 mph - N/A   Unknown
6:00 PM 41 °F - 38 °F 85% 30.01 in - NNW 10.4 mph - -  
6:00 PM 41.0 °F 34.3 °F 37.9 °F 89% 30.01 in - NW 11.5 mph - N/A   Unknown
7:00 PM 40.5 °F 34.1 °F 38.1 °F 91% 30.02 in - North 10.4 mph - N/A   Unknown
8:00 PM 38.7 °F 32.4 °F 37.0 °F 94% 30.02 in - North 9.2 mph - N/A   Unknown
9:00 PM 38.5 °F 32.7 °F 37.2 °F 95% 30.01 in - North 8.1 mph - N/A   Unknown
10:00 PM 38.1 °F 29.5 °F 36.9 °F 95% 30.01 in - North 15.0 mph - N/A   Unknown
11:00 PM 38.1 °F 32.9 °F 37.0 °F 96% 30.01 in - North 6.9 mph - N/A   Unknown